Back to catalog

YAOGAN-43 O1E

AliveMilitaryVLEO
NORAD 60462·PAYLOAD·🇨🇳 China

Launched Aug 16, 2024 from Xichang Satellite Launch Center

Loading…

Next Passes (next 24 hours)

TLE

FreshSource: Space-Track

Epoch: Sep 14, 2026, 15:02 UTC

1 60462U 24148E   26257.62651470  .00008077  00000-0  33661-3 0  9994
2 60462  34.9940 317.6570 0003250 312.2774  47.7665 15.22982492115808

Track YAOGAN-43 O1E in real time with AllMySat

Download on the App Store